www.pogodaiklimat.ru

Погода и климат >> Архив погоды >> Азербайджан >> Евлах


ПОГОДА в Евлахе

  • Прогноз погоды в Евлахе
  • Монитор погоды в Евлахе

АРХИВ ПОГОДЫ в Евлахе

Время (UTC), дата Ветер
(напр.,м/с)
 
Видим.   Явления Облачность Т
(С)
Тd
(С)
f
(%)
Тe
(С)
Тes
(С)
Комфортность P
(гПа)
Po
(гПа)
Тmin
(С)
Tmax
(С)
R
(мм)
R24
(мм)
S
(см)
18 11.09 штиль 0 20 км слаб. ливневой дождь 10/10 1000 м
[Cb cap]
+19.1 +15.8 81 +20 +20 1019.0 1017.3 +22.5 0.0
00 12.09 штиль 0 10 км {ливн. осадки} 10/10 1000 м
[Cb cap]
+16.0 +14.8 93 +16 +16 1019.9 1018.1
03 12.09 штиль 0 20 км {ливн. осадки} 10/10 1000 м
[Sc]
+16.4 +14.7 90 +16 +16 1018.5 1016.7
06 12.09 СЗ 3 20 км 10/10 1000 м
[Sc]
+19.0 +14.3 74 +20 +20 1021.5 1019.8 1
12 12.09 З 2 20 км 8/8 1000 м
[Sc]
+24.1 +7.4 34 +24 +26 комфорт 1018.8 1017.1
18 12.09 Ю 2 20 км 6/0
[Ac As]
+20.0 +13.3 65 +23 +23 комфорт 1019.6 1017.9 +25.5
00 13.09 штиль 0 10 км 6/0
[Ac As]
+17.4 +13.5 78 +17 +17 1019.2 1017.4
06 13.09 штиль 0 20 км 6/0
[Ac lent]
+21.4 +12.6 57 +24 +29 комфорт 1021.4 1019.7
12 13.09 Ю 3 20 км ясно +27.5 +6.8 27 +27 +32 жарко 1018.0 1016.3
18 13.09 Ю 2 20 км ясно +18.3 +11.0 62 +19 +19 1019.0 1017.3 +28.0
00 14.09 штиль 0 20 км ясно +15.5 +12.9 84 +15 +15 1019.2 1017.4
06 14.09 штиль 0 20 км ясно +21.2 +12.8 59 +23 +33 комфорт 1022.2 1020.5
12 14.09 Ю 3 20 км ясно +27.2 +12.0 39 +28 +34 жарко 1018.7 1017.0
18 14.09 В 2 20 км ясно +17.8 +14.9 83 +18 +18 1017.2 1015.5 +27.5
00 15.09 штиль 0 10 км ясно +16.2 +13.7 85 +16 +16 1017.2 1015.4
06 15.09 штиль 0 20 км ясно +21.4 +14.2 64 +24 +34 комфорт 1018.2 1016.5
12 15.09 Ю 4 20 км ясно +27.2 +13.3 42 +29 +33 жарко 1016.4 1014.7
18 15.09 штиль 0 20 км 10/0
[Ac und]
+20.4 +15.1 72 +23 +23 комфорт 1017.5 1015.8 +27.2
00 16.09 Ю 2 20 км 10/10 600 м
[Sc]
+19.4 +17.6 89 +22 +22 комфорт 1018.0 1016.3
03 16.09 В 1 20 км гроза, ливневой дождь 10/10 600 м
[Cb cap]
+18.4 +16.5 89 +20 +20 1019.4 1017.7
06 16.09 штиль 0 20 км слаб. ливневой дождь {гроза} 10/10 1000 м
[Cb cap]
+21.4 +18.1 81 +26 +26 душно 1019.0 1017.3 0.0
12 16.09 штиль 0 20 км ясно +27.4 +15.7 49 +30 +39 жарко 1012.6 1010.9
18 16.09 СЗ 1 20 км 8/0
[Ac As]
+21.4 +17.7 79 +26 +26 душно 1013.0 1011.3 +27.4 1
00 17.09 С 3 20 км ясно +19.4 +15.7 79 +21 +21 комфорт 1012.9 1011.2
06 17.09 С 3 20 км ясно +25.4 +13.5 48 +28 +33 жарко 1011.0 1009.3
12 17.09 З 5 20 км ясно +32.2 +12.4 30 +33 +36 жарко 1008.0 1006.3
18 17.09 С 15-15
{17}
20 км ясно +25.3 +13.6 48 +27 +27 жарко 1009.6 1007.9 +32.5
00 18.09 СЗ 3 20 км ясно +20.4 +15.0 71 +23 +23 комфорт 1011.0 1009.3
06 18.09 СЗ 10 20 км ясно +27.2 +15.1 48 +30 +30 душно 1013.1 1011.4
12 18.09 С 6 20 км ясно +32.4 +3.2 16 +30 +32 жарко 1012.0 1010.3

 

Местоположение метеостанции Евлах (Азербайджан): широта 40.62 долгота 47.15 высота над уровнем моря 15 м.

В архиве по умолчанию представлена погода в Евлахе за последнюю неделю. Архивные данные за месяц целиком и за предыдущие месяцы, начиная с января 2011 года, Вы можете получить, выбрав интересующий диапазон дат из раскрывающегося списка и нажав кнопку "Ввод!".


*Определитесь, кто Вы:
робот инопланетянин человек

Внимание! Время в таблицах - всемирное. Для получения местного времени необходимо прибавить поправку, которая равна 4 ч.

Смотрите также архив погоды в соседних городах и на ближайших метеорологических станциях:

Погода в Барде (Азербайджан) (28 км)
Погода в Геокчае (Азербайджан) (51 км)
Погода в Гяндже (Азербайджан) (63 км)
Погода в Шеках (Азербайджан) (67 км)
Погода в Габале (Азербайджан) (73 км)
Погода в Курдамире (Азербайджан) (92 км)
Погода в Ахты (Дагестан, Россия) (107 км)
Погода в Беылагане (Азербайджан) (107 км)
Погода в Гадабухте (Азербайджан) (112 км)
Погода в Закатале (Азербайджан) (124 км)

Пояснения к столбцам:

Ветер - указаны скорость ветра в м/с - средняя за 10 мин, порывы в срок и между сроками (в фигурных скобках) и направление, откуда дует ветер: С - северный, СВ - северо-восточный, В - восточный, ЮВ - юго-восточный, Ю - южный, ЮЗ - юго-западный, З - западный, СЗ - северо-западный.
Видимость - горизонтальная дальность видимости в метрах или километрах. При видимости от 1 до 10 км при отсутствии осадков обычно наблюдается дымка, при ухудшении видимости до 1 км и менее - туман. В сухую погоду видимость может ухудшаться дымом, пылью или мглою.
Явления - указаны атмосферные явления, наблюдавшиеся в срок или в последний час перед сроком; фигурными скобками обозначены явления, наблюдавшиеся между сроками (за 1-3 часа до срока); квадратными скобками обозначены град или гололедные отложения с указанием их диаметра в мм.
Облачность - указаны через наклонную черту общая и нижняя облачность в баллах и высота нижней границы облаков в метрах; квадратными скобками обозначены формы облаков: Ci - перистые, Cs - перисто-слоистые, Cc - перисто-кучевые, Ac - высококучевые, As - высокослоистые, Sc - слоисто-кучевые, Ns - слоисто-дождевые, Cu - кучевые, Cb - кучево-дождевые. Подробнее классификацию облаков см. в Атласе облаков (PDF).
T - Температура воздуха - температура, измеренная на высоте 2 м над землей.
Td - Температура точки росы - температура, при понижении до которой содержащийся в воздухе водяной пар достигнет насыщения.
f - Относительная влажность воздуха - влажноcть воздуха, измеренная на высоте 2 м над землей.
Te - Эффективная температура - температура, которую ощущает одетый по сезону человек в тени. Характеристика душности погоды. При расчете учитывается влияние влажности воздуха и скорости ветра на теплоощущения человека.
Tes - Эффективная температура на солнце - температура, которую ощущает человек, с поправкой на солнечный нагрев. Характеристика знойности погоды. Зависит от высоты солнца над горизонтом, облачности и скорости ветра. Ночью, в пасмурную погоду, а также при ветре 12 м/с и более поправка равна нулю.
P - Атмосферное давление - приведенное к уровню моря атмосферное давление.
Po - Атмосферное давление - измеренное на уровне метеостанции атмосферное давление.
Tmin - Минимальная температура - минимум температуры воздуха на высоте 2 м над землей.
Tmax - Максимальная температура - максимум температуры воздуха на высоте 2 м над землей.
R - Количество осадков - Количество выпавших осадков за период времени, мм. При наведении курсора мыши на число - период времени, за который выпало указанное количество осадков.
R24 - Количество осадков - Количество выпавших осадков за 24 часа, мм.
S - Снежный покров - Высота снежного покрова, см. При наведении курсора мыши на число - состояние снежного покрова и степень покрытия местности в баллах.